Weather History for KPSM - November, 2012

Change the Weather History Date:

Wednesday, November 14, 2012

  Actual Average Record
Temperature  
Mean Temperature 39 °F -  
Max Temperature 46 °F 46 °F 71 °F (1989)
Min Temperature 32 °F 30 °F 10 °F (1986)
Degree Days  
Heating Degree Days 26    
Moisture  
Dew Point 22 °F    
Average Humidity 51    
Maximum Humidity 68    
Minimum Humidity 37    
Precipitation  
Precipitation 0.00 in - - ()
Sea Level Pressure  
Sea Level Pressure 30.50 in    
Wind  
Wind Speed 9 mph (North)    
Max Wind Speed 14 mph    
Max Gust Speed -    
Visibility 10 miles    
Events      
Averages and records for this station are not official NWS values.
T = Trace of Precipitation, MM = Missing Value Source: NWS Daily Summary

Daily Weather History Graph

Daily Weather History Graph

Search for Another Location

Airport or City:

Trip Planner

Search our weather history database for the weather conditions in past years. The results will help you decide how hot, cold, wet, or windy it might be!

Date:

Astronomy

Nov. 14, 2012 Rise Set
Actual Time 6:35 AM EST 4:19 PM EST
Civil Twilight 6:04 AM EST 4:50 PM EST
Nautical Twilight 5:30 AM EST 5:24 PM EST
Astronomical Twilight 4:56 AM EST 5:58 PM EST
Moon 7:22 AM EST (11/14) 5:03 PM EST (11/14)
Length of Visible Light 10h 45m
Length of Day
9h 44m
New Moon, 1% of the Moon is Illuminated
Nov 14
New Moon
Nov 20
First Quarter
Nov 28
Full
Dec 6
Last Quarter
Dec 13
New

Hourly Weather History & Observations

Time (EST) Temp. Windchill Dew Point Humidity Pressure Visibility Wind Dir Wind Speed Gust Speed Precip Events Conditions
12:55 AM 39.9 °F 34.5 °F 25.2 °F 56% 30.44 in 10.0 mi North 8.1 mph - N/A   Overcast
1:55 AM 39.6 °F 34.0 °F 23.4 °F 52% 30.45 in 10.0 mi NNE 8.1 mph - N/A   Mostly Cloudy
2:55 AM 37.4 °F 30.3 °F 21.6 °F 53% 30.46 in 10.0 mi North 10.4 mph - N/A   Partly Cloudy
3:55 AM 36.0 °F 29.0 °F 22.3 °F 58% 30.47 in 10.0 mi NNE 9.2 mph - N/A   Partly Cloudy
4:55 AM 34.7 °F 26.9 °F 22.6 °F 61% 30.49 in 10.0 mi North 10.4 mph - N/A   Clear
5:55 AM 33.3 °F 27.9 °F 23.2 °F 67% 30.51 in 10.0 mi North 5.8 mph - N/A   Partly Cloudy
6:55 AM 32.0 °F 25.6 °F 22.6 °F 68% 30.53 in 10.0 mi North 6.9 mph - N/A   Partly Cloudy
7:55 AM 35.1 °F 28.6 °F 23.7 °F 63% 30.54 in 10.0 mi NNW 8.1 mph - N/A   Partly Cloudy
8:55 AM 39.4 °F 32.7 °F 22.6 °F 51% 30.55 in 10.0 mi North 10.4 mph - N/A   Partly Cloudy
9:55 AM 41.7 °F 34.4 °F 21.7 °F 45% 30.55 in 10.0 mi NNE 13.8 mph - N/A   Partly Cloudy
10:55 AM 43.9 °F 37.5 °F 22.1 °F 42% 30.53 in 10.0 mi NNE 12.7 mph - N/A   Partly Cloudy
11:55 AM 45.3 °F 39.0 °F 21.7 °F 39% 30.51 in 10.0 mi NNW 13.8 mph - N/A   Partly Cloudy
12:55 PM 45.9 °F 42.3 °F 21.7 °F 38% 30.50 in 10.0 mi NNW 6.9 mph - N/A   Partly Cloudy
1:55 PM 46.2 °F 42.7 °F 21.0 °F 37% 30.48 in 10.0 mi North 6.9 mph - N/A   Clear
2:55 PM 45.7 °F 42.0 °F 20.3 °F 37% 30.48 in 10.0 mi North 6.9 mph - N/A   Clear
3:55 PM 44.1 °F 40.1 °F 19.4 °F 37% 30.48 in 10.0 mi NNE 6.9 mph - N/A   Clear
4:55 PM 41.4 °F 39.4 °F 19.0 °F 41% 30.50 in 10.0 mi North 3.5 mph - N/A   Clear
5:55 PM 39.0 °F 35.7 °F 19.2 °F 45% 30.51 in 10.0 mi NNE 4.6 mph - N/A   Clear
6:55 PM 38.3 °F 33.9 °F 19.8 °F 47% 30.52 in 10.0 mi North 5.8 mph - N/A   Clear
7:55 PM 37.0 °F 31.6 °F 20.7 °F 52% 30.52 in 10.0 mi NNE 6.9 mph - N/A   Clear
8:55 PM 36.5 °F 30.3 °F 22.1 °F 56% 30.51 in 10.0 mi North 8.1 mph - N/A   Clear
9:55 PM 35.2 °F 28.8 °F 22.6 °F 60% 30.51 in 10.0 mi North 8.1 mph - N/A   Clear
10:55 PM 34.2 °F 26.8 °F 22.8 °F 63% 30.51 in 10.0 mi North 9.2 mph - N/A   Clear
11:55 PM 33.1 °F 25.5 °F 23.0 °F 66% 30.51 in 10.0 mi North 9.2 mph - N/A   Clear